Location: Bucquoy
(50.1391°N, 2.7097°E)
Time: 03:55:26
(UTC+00:00)

KORONAS-FOTON - Pass Details

Date: 06 May 2021
Orbit: 504 x 532 km, 82.4° (Epoch: 22 June)

Event Time Altitude Azimuth Distance (km) Brightness Sun altitude
Exits shadow 02:52:29 12° 189° (S) 1,649 5.9 -11.7°
Maximum altitude 02:56:05 89° 274° (W) 540 3.8 -11.3°
Drops below altitude 10° 03:00:03 10° 10° (N) 1,797 7.4 -10.8°
Sets 03:02:13 0° 11° (N) 2,692 8.4 -10.6°
